Time,TemperatureF,DewpointF,PressureIn,WindDirection,WindDirectionDegrees,WindSpeedMPH,WindSpeedGustMPH,Humidity,HourlyPrecipIn,Conditions,Clouds,dailyrainin,SoftwareType,DateUTC
2013-07-26 00:32:00,94.0,61.0,27.67,North,0,0.0,-999.0,34,0.00,,,-99.99,,2013-07-26 07:32:00,
2013-07-26 00:43:00,94.0,61.0,27.67,North,0,0.0,-999.0,34,0.00,,,-99.99,,2013-07-26 07:43:00,
2013-07-26 00:52:00,94.0,61.0,27.67,North,0,0.0,-999.0,34,0.00,,,-99.99,,2013-07-26 07:52:00,
2013-07-26 01:32:00,92.0,61.0,27.93,North,0,0.0,-999.0,36,0.00,,,-99.99,,2013-07-26 08:32:00,
2013-07-26 01:44:00,92.0,61.0,27.93,North,0,0.0,-999.0,36,0.00,,,-99.99,,2013-07-26 08:44:00,
2013-07-26 01:52:00,92.0,61.0,27.93,North,0,0.0,-999.0,36,0.00,,,-99.99,,2013-07-26 08:52:00,
2013-07-26 03:33:00,90.0,60.0,27.91,North,0,0.0,-999.0,37,0.00,,,-99.99,,2013-07-26 10:33:00,
2013-07-26 03:42:00,90.0,60.0,27.91,North,0,0.0,-999.0,37,0.00,,,-99.99,,2013-07-26 10:42:00,
2013-07-26 03:52:00,90.0,60.0,27.91,North,0,0.0,-999.0,37,0.00,,,-99.99,,2013-07-26 10:52:00,
2013-07-26 04:32:00,90.0,59.0,27.33,North,0,0.0,-999.0,36,0.00,,,-99.99,,2013-07-26 11:32:00,
2013-07-26 04:43:00,90.0,59.0,27.33,North,0,0.0,-999.0,36,0.00,,,-99.99,,2013-07-26 11:43:00,
2013-07-26 04:52:00,90.0,59.0,27.33,North,0,0.0,-999.0,36,0.00,,,-99.99,,2013-07-26 11:52:00,
2013-07-26 05:33:00,89.0,61.0,27.66,North,0,0.0,-999.0,39,0.00,,,-99.99,,2013-07-26 12:33:00,
2013-07-26 05:43:00,89.0,61.0,27.66,North,0,0.0,-999.0,39,0.00,,,-99.99,,2013-07-26 12:43:00,
2013-07-26 05:53:00,89.0,61.0,27.66,North,0,0.0,-999.0,39,0.00,,,-99.99,,2013-07-26 12:53:00,
2013-07-26 06:32:00,88.0,61.0,27.08,North,0,0.0,-999.0,40,0.00,,,-99.99,,2013-07-26 13:32:00,
2013-07-26 06:43:00,88.0,61.0,27.08,North,0,0.0,-999.0,40,0.00,,,-99.99,,2013-07-26 13:43:00,
2013-07-26 06:53:00,88.0,61.0,27.08,North,0,0.0,-999.0,40,0.00,,,-99.99,,2013-07-26 13:53:00,
2013-07-26 07:43:00,87.0,62.0,29.82,North,0,0.0,-999.0,44,0.00,,,-99.99,,2013-07-26 14:43:00,
2013-07-26 07:53:00,87.0,62.0,29.82,North,0,0.0,-999.0,44,0.00,,,-99.99,,2013-07-26 14:53:00,
2013-07-26 08:32:00,85.0,67.0,29.85,North,0,0.0,-999.0,55,0.00,,,-99.99,,2013-07-26 15:32:00,
2013-07-26 08:43:00,85.0,67.0,29.85,North,0,0.0,-999.0,55,0.00,,,-99.99,,2013-07-26 15:43:00,
2013-07-26 08:53:00,85.0,67.0,29.85,North,0,0.0,-999.0,55,0.00,,,-99.99,,2013-07-26 15:53:00,
2013-07-26 09:43:00,87.0,68.0,28.37,North,0,0.0,-999.0,53,0.00,,,-99.99,,2013-07-26 16:43:00,
2013-07-26 09:54:00,87.0,68.0,28.37,North,0,0.0,-999.0,53,0.00,,,-99.99,,2013-07-26 16:54:00,
2013-07-26 10:43:00,88.0,66.0,29.89,North,0,0.0,-999.0,49,0.00,,,-99.99,,2013-07-26 17:43:00,
2013-07-26 10:53:00,88.0,66.0,29.89,North,0,0.0,-999.0,49,0.00,,,-99.99,,2013-07-26 17:53:00,
2013-07-26 11:52:00,90.0,68.0,28.35,North,0,0.0,-999.0,48,0.00,,,-99.99,,2013-07-26 18:52:00,
2013-07-26 13:32:00,92.0,68.0,29.17,NW,320,4.0,-999.0,45,0.01,,,-99.99,,2013-07-26 20:32:00,
2013-07-26 13:43:00,92.0,68.0,29.17,NW,320,4.0,-999.0,45,0.01,,,-99.99,,2013-07-26 20:43:00,
2013-07-26 13:52:00,92.0,68.0,29.17,NW,320,4.0,-999.0,45,0.01,,,-99.99,,2013-07-26 20:52:00,
2013-07-26 16:43:00,99.0,68.0,28.92,North,10,5.0,-999.0,37,0.00,,,-99.99,,2013-07-26 23:43:00,
2013-07-26 16:52:00,99.0,68.0,28.92,North,10,5.0,-999.0,37,0.00,,,-99.99,,2013-07-26 23:52:00,
2013-07-26 17:00:00,99.0,66.0,28.79,NNW,340,8.0,-999.0,35,0.00,,,-99.99,,2013-07-27 00:00:00,
2013-07-26 18:53:00,100.0,67.0,28.86,North,350,3.0,-999.0,34,0.00,,,-99.99,,2013-07-27 01:53:00,
2013-07-26 19:52:00,100.0,67.0,28.76,North,0,0.0,-999.0,34,0.00,,,-99.99,,2013-07-27 02:52:00,
2013-07-26 20:52:00,98.0,66.0,28.49,North,0,0.0,-999.0,35,0.00,,,-99.99,,2013-07-27 03:52:00,
2013-07-26 21:32:00,96.0,65.0,28.93,NNW,340,6.0,-999.0,36,0.00,,,-99.99,,2013-07-27 04:32:00,
2013-07-26 21:43:00,96.0,65.0,28.93,NNW,340,6.0,-999.0,36,0.00,,,-99.99,,2013-07-27 04:43:00,
2013-07-26 21:53:00,96.0,65.0,28.93,NNW,340,6.0,-999.0,36,0.00,,,-99.99,,2013-07-27 04:53:00,
2013-07-26 22:32:00,93.0,64.0,28.51,North,10,1.0,-999.0,39,0.00,,,-99.99,,2013-07-27 05:32:00,
2013-07-26 22:43:00,93.0,64.0,28.51,North,10,1.0,-999.0,39,0.00,,,-99.99,,2013-07-27 05:43:00,
2013-07-26 22:52:00,93.0,64.0,28.51,North,10,1.0,-999.0,39,0.00,,,-99.99,,2013-07-27 05:52:00,
2013-07-26 23:43:00,91.0,64.0,28.37,North,0,0.0,-999.0,41,0.00,,,-99.99,,2013-07-27 06:43:00,
2013-07-26 23:52:00,91.0,64.0,28.37,North,0,0.0,-999.0,41,0.00,,,-99.99,,2013-07-27 06:52:00,